Tracking 19795 objects as of 18-Jul-2019
HD Live streaming from Space Station
objects crossing your sky now

SL-12 DEB

Track SL-12 DEB now!
10-day predictions


NORAD ID: 26813
Int'l Code: 1989-001P
Perigee: 707.4 km
Apogee: 4,434.0 km
Inclination: 65.5 °
Period: 140.2 minutes
Semi major axis: 8941 km
RCS: 0.1185 m2 (medium)
Launch date: January 10, 1989
Source: Commonwealth of Independent States (former USSR) (CIS)
Launch site: TYURATAM MISSILE AND SPACE COMPLEX (TTMTR)

Note: This is SATELLITE DEBRIS
aabbcc
Your satellite tracking list
Your tracking list is empty




NASA's NSSDC Master Catalog

Two Line Element Set (TLE):
1 26813U 89001P   19173.95758946  .00028045  00000-0  53814-1 0  9993
2 26813  65.5054   6.9187 2083798 230.8064 108.8839 10.26769688618744
Source of the keplerian elements: AFSPC